Wind_Speed
11 11 11 11 11 11 11 11 11 11 10 10 10 10 10 10 10 10 10 10 10 10 10 10 10 10 10 9 9 9 9 10 12 12 15 12 9 12 12 11 13 16 20 18 16 15 14 14 13 13 11 9 7 5 5 4 2 1 3 4 2 2 2 2 5 6 9 13 14 14 13 14 14 11 9 9 11 12 12 10 11 11 14 19 24 28 26 24
11 11 11 12 12 13 12 12 12 11 11 10 10 10 10 10 10 10 10 10 10 10 9 10 10 10 10 9 8 8 9 12 15 17 19 16 11 13 14 12 14 19 22 19 18 17 15 13 13 13 9 7 6 4 4 2 2 4 3 3 2 1 2 3 4 6 10 15 15 14 13 12 13 13 11 11 13 12 13 12 13 16 19 22 27 27 25 24
11 11 11 12 12 13 13 13 13 12 11 10 10 10 10 10 10 10 10 10 9 9 9 9 9 10 9 8 7 7 10 15 15 13 11 13 16 17 15 14 15 20 23 19 17 18 14 12 13 12 10 7 5 5 4 3 3 2 2 2 1 2 4 5 6 7 9 15 16 14 12 12 13 13 10 12 15 13 13 14 15 19 21 22 23 25 25 23
11 11 11 11 12 12 13 13 13 13 12 11 10 9 9 10 10 10 10 10 9 8 8 9 9 8 7 7 5 6 10 14 7 2 4 3 8 14 16 16 17 21 23 18 15 17 15 12 12 12 10 7 6 6 4 4 3 2 1 1 1 4 3 2 4 9 12 13 15 14 13 13 13 10 10 13 13 11 12 14 17 21 23 23 22 23 23 21
12 11 11 12 12 12 13 13 13 13 13 12 11 10 9 9 10 10 9 9 8 8 8 8 8 7 7 5 4 5 9 7 2 8 4 2 5 9 17 18 18 22 22 18 15 16 15 12 11 11 10 7 6 6 6 7 6 4 0 3 2 2 2 1 1 9 13 12 14 14 13 13 12 11 11 12 10 9 12 14 18 21 23 24 23 22 21 20
13 12 12 12 12 12 13 13 13 12 12 12 12 11 10 10 10 10 9 8 8 8 8 7 7 6 5 3 3 6 9 3 4 5 0 6 8 9 19 18 19 22 21 18 16 16 14 12 12 10 9 8 7 7 5 6 6 6 3 4 3 0 2 2 1 7 12 13 13 12 12 13 14 12 10 9 8 11 14 17 19 20 22 25 24 22 19 18
13 13 13 13 13 13 13 13 13 12 12 12 12 11 10 10 10 10 8 8 8 7 8 7 6 5 3 3 5 7 10 7 2 4 4 7 6 11 20 18 20 22 20 19 17 15 13 13 13 10 9 8 7 8 5 5 9 7 2 4 4 3 3 1 2 7 11 13 12 11 12 13 14 12 9 9 12 14 16 19 20 21 23 24 22 20 18 17
14 14 14 14 14 14 14 14 13 12 12 12 11 10 10 9 9 9 8 8 7 7 8 8 6 3 2 5 8 8 9 4 5 4 7 6 3 14 19 17 20 21 20 20 17 14 12 13 13 10 9 7 5 6 5 5 9 5 1 3 4 4 4 4 4 7 10 12 11 12 12 13 13 11 10 12 15 16 18 19 20 21 21 20 19 19 18 16
16 15 15 15 15 15 15 14 14 13 13 12 11 10 9 9 9 8 7 7 7 7 7 7 5 1 1 5 9 8 2 5 7 3 4 0 8 17 18 17 21 20 18 19 17 15 12 11 13 11 8 6 6 6 7 9 4 6 4 2 3 5 5 3 1 4 5 7 10 14 13 12 13 11 11 13 16 17 19 20 20 21 20 19 18 18 17 16
17 16 16 15 15 15 15 14 14 13 13 12 11 10 9 8 9 8 8 8 7 8 7 5 1 2 3 7 10 6 5 7 4 3 2 8 14 17 17 17 20 20 17 17 17 16 12 10 12 9 7 7 7 7 8 7 2 9 7 5 4 5 5 2 1 2 2 3 9 14 13 14 13 9 9 13 16 17 19 20 20 20 19 18 17 17 16 16
18 17 17 16 15 15 15 14 14 13 13 12 11 10 9 8 8 8 8 8 7 7 6 3 4 3 8 9 10 4 6 5 3 3 5 12 15 16 17 17 19 19 16 15 17 16 14 12 9 6 4 4 6 8 6 2 6 9 7 9 7 5 5 2 2 4 4 2 8 12 13 13 12 8 10 15 17 17 19 21 20 19 17 18 18 16 14 15
19 19 18 16 15 15 14 14 14 13 13 11 10 9 8 7 7 7 8 7 6 5 4 1 5 3 9 10 9 3 5 3 2 3 8 12 12 14 15 15 17 18 15 14 15 15 16 13 10 9 4 3 8 7 3 0 6 9 5 6 8 6 6 4 3 5 3 3 3 9 12 11 10 10 14 16 17 18 19 20 19 18 16 17 17 14 12 14
19 19 19 18 16 15 14 14 14 13 12 10 9 7 7 6 5 6 6 5 4 3 1 4 4 4 9 7 4 2 3 2 0 4 9 11 11 11 11 12 15 16 14 13 13 14 15 11 11 11 7 8 8 2 2 0 5 8 3 3 6 6 6 5 4 6 4 3 6 4 8 9 10 14 16 16 17 18 19 19 18 17 16 15 15 13 13 14
19 19 19 18 16 15 14 14 14 12 11 10 7 6 6 5 5 5 5 4 2 1 3 4 3 6 9 5 2 1 1 1 2 8 10 11 10 9 10 12 13 13 12 12 11 12 12 10 12 10 9 12 7 4 2 4 4 5 1 1 4 4 6 6 4 6 4 1 5 5 4 8 12 16 16 16 18 18 18 19 18 16 15 15 14 14 13 14
19 19 19 19 17 15 13 13 13 12 11 9 6 5 5 5 4 4 3 2 1 3 4 1 4 7 9 6 2 2 5 4 6 10 10 11 11 10 10 11 11 11 10 11 10 9 8 9 11 9 9 11 8 6 7 5 3 3 2 2 4 3 7 6 4 7 5 1 2 3 2 8 12 15 16 15 17 18 18 18 17 17 17 16 14 13 13 14
18 19 19 19 17 15 14 13 13 12 10 8 6 4 4 4 3 3 3 1 3 4 2 4 8 8 8 1 5 5 7 7 9 10 9 11 11 10 12 11 10 9 9 9 7 7 8 9 9 9 9 9 9 9 6 5 3 3 4 3 4 5 7 7 5 8 7 3 4 2 1 5 11 15 16 16 17 18 18 17 17 17 17 16 14 13 13 13
18 19 19 19 17 15 14 13 13 12 10 7 4 3 3 3 3 2 1 2 2 1 5 8 6 7 7 2 4 8 8 8 11 11 9 9 8 11 13 10 10 9 9 8 6 7 9 9 8 8 9 8 9 9 7 5 3 3 6 3 5 6 7 7 6 8 8 6 7 6 3 3 9 16 16 17 18 17 18 18 18 16 15 15 13 14 13 13
18 18 19 19 17 16 14 12 12 11 8 5 4 4 3 3 3 2 2 2 3 6 8 8 7 6 5 4 4 6 8 9 11 11 9 8 7 11 12 9 9 10 10 8 8 9 8 8 8 7 8 8 8 9 7 5 4 3 4 3 4 6 7 9 8 8 9 7 7 8 5 4 8 15 15 16 17 16 17 17 17 16 15 14 14 14 14 14
17 18 18 19 18 16 14 12 12 10 7 4 4 4 3 2 2 5 8 6 6 6 3 5 6 3 2 5 4 6 8 10 10 10 9 8 9 12 11 9 10 11 10 8 9 11 8 7 9 8 9 10 10 11 6 6 6 4 3 5 3 6 6 9 9 10 12 8 5 7 4 2 8 14 15 16 16 15 17 17 15 15 15 14 13 13 13 14
17 18 18 18 17 16 14 12 11 9 6 3 4 4 3 2 2 5 8 10 9 8 5 3 6 4 1 6 7 8 9 10 10 10 10 10 11 12 10 8 10 10 9 8 9 10 9 8 9 10 11 11 12 12 6 6 6 8 6 6 6 7 5 8 9 9 10 8 6 7 5 2 7 11 14 15 15 15 17 17 15 14 14 13 13 14 14 13
17 18 18 18 17 15 13 11 11 9 6 4 5 8 6 6 5 3 3 8 11 9 7 4 5 6 1 3 7 9 10 10 10 10 11 11 11 11 9 9 10 9 10 11 9 9 9 9 11 13 13 11 13 14 8 8 9 5 8 5 6 6 4 7 8 9 8 6 5 7 8 5 7 8 12 15 15 15 16 17 17 16 15 13 13 15 14 13
18 18 18 18 17 15 12 11 11 9 6 6 7 10 7 9 8 8 9 7 5 4 5 3 4 4 2 2 5 9 10 10 9 10 11 11 12 10 9 10 10 9 11 11 8 9 10 11 13 13 12 10 9 10 9 10 12 5 5 5 4 4 5 5 7 9 8 3 4 8 9 6 4 8 11 15 14 13 15 16 16 17 15 14 14 14 14 14
18 18 18 17 17 14 12 10 10 6 8 10 10 11 9 8 8 9 8 8 1 4 4 5 5 6 8 6 6 10 11 9 10 11 12 11 12 9 8 11 11 10 12 11 10 9 8 11 14 12 11 9 6 7 8 8 10 4 6 5 4 6 4 2 6 10 8 4 5 8 6 2 1 7 10 13 14 12 14 15 15 15 14 15 15 14 14 15
18 18 17 17 16 14 11 10 8 7 11 13 14 13 11 8 9 11 8 9 1 4 3 4 5 6 6 4 9 14 10 7 9 11 13 13 10 7 8 10 11 11 11 12 13 10 9 12 14 12 10 8 8 11 10 7 8 4 8 5 5 8 4 1 7 10 8 6 8 9 4 1 1 6 8 8 11 13 14 15 15 15 14 15 15 15 15 15
19 18 17 16 15 12 12 10 7 9 10 14 14 10 9 7 8 9 8 7 2 5 4 5 4 3 4 4 10 12 7 6 8 10 13 15 11 7 8 8 9 10 11 14 13 11 12 10 10 13 11 8 11 13 10 8 8 5 8 5 7 10 5 6 11 10 7 6 10 10 5 3 3 7 7 6 7 12 14 15 16 15 15 14 14 15 15 14
19 18 16 15 13 11 10 5 4 6 9 10 7 5 5 6 7 8 8 5 3 5 6 7 3 3 5 8 10 9 8 6 7 9 12 14 11 7 8 7 7 9 10 12 10 8 9 7 8 11 10 11 13 11 9 9 8 5 7 6 12 14 10 11 13 8 4 4 8 9 4 3 4 7 8 6 6 10 14 16 16 15 15 14 13 14 14 14
20 18 16 14 11 8 6 4 6 9 8 3 4 6 6 5 5 6 6 3 3 1 3 5 4 3 5 8 11 8 4 7 8 9 11 12 10 8 8 8 8 8 8 9 7 8 8 9 9 11 9 11 11 9 8 9 8 2 3 5 11 13 11 12 11 5 2 4 6 6 1 3 3 5 8 10 9 11 14 17 16 15 15 15 15 15 15 15
20 17 15 12 10 8 9 9 11 11 7 6 6 8 5 5 5 6 6 1 4 1 0 6 4 3 5 8 11 6 3 7 8 9 10 12 10 8 8 8 10 10 9 10 8 9 10 7 8 12 12 9 9 11 7 7 9 1 2 3 7 11 8 8 7 4 3 4 5 6 4 2 2 3 6 10 11 12 14 16 17 16 16 16 16 16 17 16
20 16 14 11 10 10 11 11 11 11 8 8 8 8 6 6 5 6 5 2 2 2 1 5 3 5 7 9 9 6 5 7 5 7 10 11 10 9 7 7 11 9 9 12 9 5 7 6 5 10 12 8 10 12 5 5 7 2 2 4 7 12 10 6 4 4 2 3 4 10 11 5 2 4 6 8 10 10 11 14 15 16 17 16 16 17 17 15
19 14 12 10 7 6 8 11 14 12 9 9 9 9 8 6 5 5 1 3 2 3 4 4 5 6 8 10 9 8 8 5 4 7 9 8 10 9 7 5 11 8 6 12 12 2 3 6 5 7 10 9 11 12 6 5 6 2 2 5 4 9 11 6 2 4 2 2 1 9 13 8 2 4 8 8 9 11 10 12 15 16 17 17 16 16 16 15
17 12 10 9 7 5 6 6 6 7 7 9 10 10 8 5 6 5 3 3 0 3 5 4 6 8 7 6 6 7 7 6 7 10 8 6 10 10 6 6 8 7 6 10 12 6 4 6 5 7 10 9 11 10 5 4 6 4 4 4 4 6 7 5 2 2 3 1 1 8 13 10 4 4 7 8 11 15 12 11 15 17 17 17 16 16 16 14
14 11 10 11 10 11 11 6 5 5 6 9 9 8 6 4 5 2 4 2 3 1 3 4 5 8 7 4 4 8 8 6 9 10 8 8 9 8 8 7 6 7 7 8 11 10 7 7 8 10 11 10 9 6 5 6 9 7 4 5 6 5 5 3 4 4 3 2 3 8 10 8 4 4 8 11 12 15 13 11 15 18 18 18 16 16 15 14
12 10 9 11 11 13 13 10 10 9 8 10 8 6 6 4 2 3 3 1 1 2 2 2 3 5 7 6 5 8 8 6 7 10 9 9 8 9 10 9 9 9 6 7 10 9 8 7 10 11 11 11 9 7 6 8 9 9 6 6 6 5 4 5 4 4 4 3 6 10 10 6 2 3 8 15 15 15 15 11 11 17 19 18 17 16 15 14
9 8 8 9 11 13 12 12 12 10 10 9 7 6 7 3 3 2 4 5 5 1 2 3 3 5 6 6 6 6 6 6 7 9 8 8 7 8 10 7 9 9 7 7 9 9 9 7 10 12 9 11 14 12 9 6 8 10 8 6 7 5 4 4 3 2 2 4 4 7 7 2 1 3 6 11 15 15 13 9 6 11 15 15 15 16 16 15
6 5 6 7 10 11 11 12 11 9 9 8 6 6 4 2 3 2 4 5 1 3 5 3 6 7 6 4 6 7 3 2 8 9 6 8 6 5 8 5 5 8 8 6 7 9 11 8 10 16 12 11 15 15 12 10 7 8 8 7 7 6 5 5 3 2 2 3 2 2 3 1 2 5 5 8 12 10 8 8 7 8 10 13 15 15 15 15
3 4 5 8 8 7 8 9 8 8 8 7 7 4 1 3 4 4 4 3 5 2 3 5 6 6 5 3 6 8 3 1 7 8 5 8 7 5 7 5 5 9 8 4 4 7 9 5 9 14 13 12 13 14 14 11 5 4 8 9 7 7 6 6 3 3 3 3 3 5 4 5 4 6 7 9 11 9 7 9 10 6 7 13 15 14 14 14
5 7 7 9 7 5 6 7 7 8 8 7 5 4 2 2 4 5 4 4 4 4 3 4 3 4 3 4 5 6 7 3 6 6 5 6 5 2 4 4 2 7 7 5 5 5 6 5 9 12 13 11 9 11 15 13 8 4 6 7 8 8 6 4 4 4 5 3 3 5 5 6 5 4 8 11 13 13 12 12 13 10 8 11 14 14 15 15
7 9 7 6 4 4 5 6 7 8 7 7 2 3 3 2 4 5 5 5 3 3 7 4 2 4 3 4 5 4 6 4 5 4 4 4 4 1 5 4 4 5 7 6 5 3 5 6 8 10 11 10 9 10 12 13 13 11 7 4 6 8 6 6 5 5 6 3 1 4 6 6 3 3 9 12 13 15 16 15 16 15 13 10 12 15 16 16
9 9 6 7 4 4 4 5 8 7 6 6 2 1 3 2 4 4 5 4 3 3 6 4 1 4 3 2 4 5 6 5 5 4 4 3 4 4 5 3 6 6 6 8 7 2 4 7 4 8 10 11 10 9 9 10 13 14 9 5 6 6 6 6 5 5 5 2 2 3 4 2 2 4 10 12 13 15 15 15 15 17 16 13 10 13 16 15
9 7 4 9 6 3 4 6 8 7 5 4 2 1 2 1 3 3 4 5 3 2 5 4 1 3 2 2 3 4 5 6 5 4 4 3 3 5 3 2 2 5 5 7 8 3 4 7 3 5 9 10 9 8 10 9 10 11 10 7 7 6 6 5 5 6 6 4 3 2 2 2 3 3 8 10 12 13 13 14 13 13 16 14 11 11 13 14
9 6 4 9 6 4 5 7 6 6 4 2 2 0 2 5 3 2 2 3 2 1 4 4 2 2 1 2 2 2 4 6 7 5 5 5 3 3 4 1 4 4 4 7 8 5 4 7 5 4 7 8 8 9 12 12 9 9 9 8 8 7 7 6 6 6 6 6 4 2 1 2 3 0 4 8 9 10 12 12 10 11 13 13 12 9 9 10
8 4 5 7 5 4 7 7 3 4 3 1 1 2 3 3 6 3 1 2 2 0 1 2 2 2 1 1 1 2 2 3 5 3 2 3 3 6 5 1 3 5 5 6 6 2 2 6 7 5 4 7 9 11 13 14 12 10 9 10 10 8 7 7 6 6 6 6 5 4 2 3 3 2 5 8 7 8 11 12 10 11 11 12 13 10 7 5
7 2 6 7 4 5 8 5 3 4 1 3 0 1 0 3 3 2 2 3 3 2 1 1 1 2 2 2 3 2 1 0 1 1 3 4 7 6 4 3 3 5 6 6 2 3 1 5 6 7 5 5 9 10 13 14 12 9 9 10 10 10 9 9 7 5 5 6 6 5 3 3 3 3 5 9 9 8 10 12 12 11 10 11 14 12 8 8
5 1 5 7 6 7 7 4 3 4 1 1 3 3 1 3 5 5 4 4 4 3 2 2 2 2 1 1 3 1 1 2 1 1 1 3 5 4 3 3 4 5 1 4 4 2 2 6 5 7 6 7 9 7 8 10 9 7 8 10 12 13 13 11 7 4 6 6 7 5 2 3 4 4 4 7 11 9 9 11 11 11 10 11 13 12 9 8
5 3 2 6 8 8 6 3 4 3 2 3 4 3 4 3 2 5 5 4 3 4 2 1 2 3 1 1 3 2 2 3 1 0 1 2 5 4 2 2 4 5 6 8 8 4 4 4 4 7 7 7 6 4 4 7 8 8 10 11 12 14 16 11 6 6 7 6 8 5 1 4 5 6 6 6 9 10 10 11 11 11 12 12 12 13 10 8
4 4 3 5 7 7 5 3 5 4 2 3 2 1 4 2 6 1 5 2 2 3 3 2 2 3 1 2 3 2 3 4 1 2 3 2 4 4 2 1 2 4 5 4 5 6 4 5 6 7 7 6 3 5 8 7 9 11 12 14 13 14 15 11 7 7 7 7 8 4 3 5 5 6 8 8 9 10 10 11 11 11 12 13 12 12 11 9
5 4 3 2 4 5 4 4 6 3 1 2 2 2 3 1 3 4 2 2 1 2 2 2 3 3 0 2 4 2 1 4 2 1 2 1 0 3 1 3 0 5 3 5 6 4 5 6 7 7 9 10 9 7 9 10 11 12 14 15 13 11 10 10 9 7 5 6 7 2 1 4 6 7 9 8 8 10 11 11 11 11 11 11 12 13 13 11
5 3 1 1 3 3 2 2 4 2 2 3 2 2 3 1 1 1 2 0 1 1 2 0 3 4 2 2 3 1 1 3 2 1 2 2 3 2 3 4 1 2 5 8 4 1 5 6 7 8 10 11 11 8 8 10 11 11 12 13 12 12 12 12 12 9 7 8 5 4 5 4 2 5 9 8 7 9 10 10 10 11 11 11 12 13 13 13
5 3 0 2 3 3 1 1 4 5 3 2 1 3 4 2 1 2 2 2 1 2 4 1 1 3 2 2 4 1 2 2 2 2 2 3 4 4 3 3 2 4 5 5 1 1 4 5 6 9 9 10 10 9 8 9 10 9 7 6 8 11 13 12 12 12 12 11 6 3 3 1 6 2 4 8 7 8 9 7 9 11 11 11 12 12 12 13
4 3 2 3 4 3 2 3 5 6 3 1 1 2 2 1 3 3 1 5 3 2 2 1 2 2 2 2 2 1 2 2 3 1 2 5 3 2 3 2 3 7 7 6 1 1 3 5 5 8 9 8 9 9 9 10 9 5 1 3 6 9 9 8 8 9 10 8 5 5 5 5 6 2 2 6 8 8 9 8 8 9 11 11 11 11 12 11
8 3 3 5 3 2 4 5 6 5 4 3 3 3 2 2 3 3 3 5 6 4 3 2 2 1 2 2 1 3 3 1 3 2 1 4 1 1 2 2 3 6 6 5 4 1 3 4 5 7 8 6 7 10 12 10 7 5 2 4 5 5 5 5 5 4 4 5 6 7 5 4 7 4 2 5 7 9 10 10 8 7 9 10 10 9 9 10
10 3 3 6 3 3 4 5 5 5 3 2 2 2 3 3 4 1 1 2 3 4 5 3 2 1 0 3 4 5 4 2 2 3 2 3 2 1 2 2 3 4 5 6 5 3 3 4 5 7 6 5 6 9 11 10 8 6 3 5 5 2 3 4 4 5 5 4 5 4 0 3 6 7 5 4 6 8 9 9 8 7 7 8 8 7 7 8
Wind_Direction
343 342 340 339 337 334 332 330 329 328 326 325 323 321 320 318 315 314 313 309 306 304 305 307 305 306 308 311 318 329 335 310 286 254 238 249 236 229 238 222 208 188 173 182 195 195 195 204 208 206 214 217 219 223 209 208 150 178 270 268 268 117 132 189 198 191 148 143 147 150 153 142 137 137 140 142 133 129 127 122 122 127 130 126 128 134 139 141
343 342 340 338 335 334 333 330 328 327 325 323 322 319 320 315 312 313 310 310 305 301 304 302 303 306 308 314 325 342 332 298 275 260 247 246 237 230 235 226 203 183 178 191 197 194 197 200 200 202 212 218 205 191 206 202 182 241 285 290 287 84 199 197 198 206 155 145 146 147 151 143 142 143 150 147 136 138 132 124 124 122 119 120 130 138 141 144
345 342 339 336 335 335 333 332 330 327 325 322 321 320 318 313 312 310 307 309 303 299 298 298 303 303 311 320 329 354 325 293 272 259 246 237 239 241 237 221 201 187 187 197 199 198 204 202 198 202 214 225 197 177 199 220 229 251 289 262 275 316 223 177 176 193 154 144 145 144 146 142 144 145 151 147 141 146 136 130 130 126 127 131 137 141 144 147
348 343 340 337 336 336 334 333 330 328 326 323 321 318 316 314 310 308 307 305 300 297 294 297 303 305 319 322 343 5 309 281 267 120 114 197 243 237 224 210 198 191 196 206 204 203 213 208 203 210 221 230 206 198 198 198 213 183 203 265 320 327 308 160 157 154 147 148 144 141 142 141 142 140 144 147 146 147 139 139 140 137 138 140 143 145 147 149
349 344 341 340 338 337 335 333 330 328 326 323 322 318 315 311 307 306 303 301 297 293 293 297 303 309 320 330 18 339 291 268 92 88 111 301 307 223 203 197 191 191 200 211 210 208 217 214 209 217 229 238 217 215 205 187 217 229 143 9 333 351 29 227 197 148 149 149 143 142 144 138 135 134 141 152 150 138 139 143 142 141 142 144 146 146 148 150
350 347 343 340 338 337 336 333 331 328 324 323 322 318 315 313 312 308 302 302 299 296 300 300 301 311 321 348 356 289 270 275 62 74 294 310 312 212 190 187 182 188 203 212 211 210 216 215 212 217 226 235 226 232 225 168 211 254 58 45 286 154 137 223 218 167 155 147 148 145 141 136 136 133 135 149 137 125 132 138 139 140 142 144 144 145 149 154
353 349 345 342 340 337 336 334 333 330 326 325 323 319 316 315 314 309 307 306 305 308 307 304 305 310 325 326 298 262 251 269 38 58 312 316 302 197 180 179 177 188 207 212 210 208 212 212 212 217 225 232 227 236 248 165 195 247 52 119 203 173 148 191 222 202 162 146 147 141 143 144 139 129 128 136 128 124 126 132 137 138 142 143 143 146 150 153
357 351 347 344 342 341 339 336 334 332 330 328 326 324 318 314 310 308 309 308 309 309 304 309 314 306 319 303 278 248 236 267 56 32 313 319 232 182 172 173 181 194 209 212 210 205 209 213 213 220 230 239 244 240 251 224 199 204 124 146 180 161 150 167 212 214 166 144 142 145 152 143 134 131 134 132 126 126 127 132 138 138 142 144 145 146 147 153
0 354 348 346 345 343 341 338 335 333 333 331 332 330 322 317 311 309 309 309 311 307 308 310 310 305 301 290 274 258 194 53 56 44 320 278 169 172 171 177 188 198 208 213 211 207 209 212 214 223 246 252 247 238 234 248 216 128 152 182 161 144 150 161 224 248 179 142 142 148 146 133 134 136 133 131 128 128 132 138 140 141 143 146 148 146 148 154
3 357 350 348 347 344 341 339 334 332 333 332 334 332 328 322 314 316 315 315 316 309 311 306 306 129 256 266 264 260 79 46 38 89 121 155 160 170 181 185 189 200 209 212 211 211 214 218 217 223 262 268 254 242 224 244 81 111 141 138 122 120 130 148 90 338 11 132 158 149 138 135 143 144 136 135 134 134 138 141 142 144 146 147 148 146 151 154
2 357 352 348 346 344 341 337 333 332 333 332 332 329 327 320 312 315 314 317 321 317 319 293 155 183 265 266 262 275 61 23 4 98 150 159 164 177 189 190 191 203 209 210 212 213 218 227 229 224 246 257 247 237 216 229 92 126 147 117 104 101 111 123 114 79 46 237 181 145 136 144 152 153 144 142 140 140 142 143 145 146 145 146 147 147 153 153
360 357 352 348 346 344 341 337 334 333 332 329 325 323 319 311 306 308 311 317 315 325 335 204 153 212 277 265 254 304 33 350 6 117 157 159 171 181 189 193 195 206 211 212 212 213 222 232 241 234 229 240 240 233 196 155 118 141 172 128 117 127 133 125 118 108 110 268 221 147 144 152 162 151 145 148 144 145 145 145 147 146 145 147 147 150 155 152
358 355 350 347 345 344 342 337 335 333 331 326 320 314 310 303 297 298 304 310 312 337 55 152 158 246 273 266 248 357 2 307 58 160 162 163 175 179 193 199 199 210 218 221 213 212 222 232 251 246 242 248 251 301 45 356 124 134 188 178 139 149 153 138 124 116 119 317 307 207 162 153 154 143 149 155 147 149 149 149 150 146 148 149 149 154 154 153
356 353 350 347 344 344 341 336 335 334 328 323 314 306 303 293 291 295 293 297 314 58 123 140 189 250 262 264 53 54 227 251 172 171 163 167 171 176 194 196 200 213 221 226 217 213 219 229 253 259 245 251 283 352 232 212 161 137 138 217 179 170 149 142 146 134 136 287 305 277 178 148 144 144 158 161 151 152 152 152 152 148 151 151 152 157 153 155
355 352 348 345 343 343 339 336 334 330 328 323 314 303 294 285 286 279 266 280 97 121 110 159 233 248 261 241 120 123 188 192 183 171 162 168 171 173 181 182 196 211 215 223 218 211 221 232 244 249 232 238 267 269 216 198 185 150 121 190 206 197 140 143 175 164 162 211 236 274 185 152 147 153 165 163 153 152 154 156 154 152 153 153 155 158 153 157
353 349 346 343 343 341 338 336 331 329 327 319 309 294 287 297 295 276 264 176 123 113 125 248 232 237 277 295 116 159 189 186 173 166 166 171 170 167 167 173 190 197 197 212 218 201 217 236 238 240 235 221 228 240 220 200 191 184 220 200 188 193 150 151 189 178 166 156 175 190 190 164 151 158 167 164 159 154 155 159 157 156 155 155 158 158 157 160
349 347 345 340 340 339 336 333 329 329 323 314 302 277 286 311 300 303 310 157 153 201 235 265 268 247 270 352 157 186 176 158 156 164 172 172 168 162 164 175 183 183 183 197 213 201 210 226 233 237 239 234 223 226 231 224 213 216 224 189 176 195 161 158 183 178 170 171 176 161 167 205 156 161 169 166 164 159 158 160 160 160 157 158 161 158 160 162
347 346 341 337 338 337 334 332 329 326 317 305 286 283 314 326 313 304 288 172 198 231 242 256 272 264 235 194 193 169 148 146 156 166 171 170 166 161 169 180 176 177 185 191 203 207 202 203 224 229 223 232 227 225 227 217 234 242 237 223 170 182 166 162 171 171 173 181 187 167 170 253 178 166 170 168 168 164 161 162 161 161 159 161 163 159 160 162
345 343 338 335 335 334 334 331 327 322 307 287 288 313 325 291 277 249 232 204 200 239 265 193 216 298 75 154 144 117 137 149 157 170 172 172 167 166 175 180 176 183 191 189 188 198 197 196 216 223 219 214 214 232 228 198 212 156 209 254 145 148 167 154 156 165 170 170 187 182 162 242 194 174 172 171 169 168 165 163 162 162 160 164 166 160 161 163
344 340 335 332 332 334 333 327 324 315 285 253 272 278 268 264 253 217 210 212 227 270 302 184 211 264 123 141 124 119 141 156 171 176 171 172 170 172 176 178 185 193 204 194 178 189 199 206 212 216 223 212 210 230 225 227 233 125 164 234 138 150 164 142 149 155 169 169 174 186 154 162 205 185 177 172 169 172 168 163 162 163 162 167 167 160 162 164
341 337 331 329 330 331 329 324 324 308 261 221 255 261 290 349 347 344 314 238 218 235 269 258 257 272 281 110 134 153 162 171 184 173 170 179 179 179 173 184 193 194 212 204 175 184 202 216 219 216 223 223 221 220 200 235 259 161 166 185 140 157 135 132 150 148 171 178 159 173 163 177 221 211 188 174 172 174 168 164 163 164 165 167 166 162 164 164
339 334 328 327 326 328 328 322 320 303 235 213 246 256 294 359 351 328 324 286 194 182 258 232 238 253 219 208 176 180 183 176 179 169 171 185 193 190 171 190 203 191 206 207 183 186 203 224 225 216 222 234 237 226 208 229 254 243 152 136 139 145 109 115 143 154 175 173 152 178 177 175 217 241 210 176 172 173 169 168 164 164 167 167 167 165 166 164
337 330 325 324 323 326 322 316 319 291 212 216 240 257 292 344 334 313 299 283 178 141 210 188 207 194 177 204 190 200 207 178 173 171 172 194 206 203 182 193 208 202 199 203 202 196 200 221 225 219 218 230 247 245 239 234 246 250 104 115 160 161 160 134 152 166 171 162 161 168 177 152 123 249 223 177 170 171 169 171 166 167 168 166 169 167 168 167
333 327 324 321 320 322 315 313 309 258 216 228 248 268 296 318 317 320 304 277 195 131 182 165 220 201 161 176 180 202 215 167 177 172 170 201 208 198 206 203 208 211 203 206 210 213 218 215 218 219 208 221 239 235 236 236 242 193 127 145 173 168 198 160 158 164 156 158 154 142 150 142 163 234 215 173 174 173 169 172 169 171 170 167 170 170 171 170
331 325 321 317 317 316 310 304 272 239 222 238 253 268 288 303 314 323 307 279 145 127 159 153 215 203 119 156 183 207 223 162 181 167 168 206 207 188 210 208 218 216 197 208 214 221 228 206 205 215 201 224 242 232 225 226 248 216 166 170 139 148 161 145 157 162 162 172 162 162 172 166 199 219 195 167 182 177 170 175 174 171 172 171 173 173 173 171
329 323 317 314 313 309 308 301 254 254 246 246 267 301 300 310 318 313 293 264 143 135 164 159 178 153 153 184 183 216 233 168 152 151 172 211 215 212 217 192 218 227 197 204 219 233 222 175 196 216 204 224 238 237 223 216 243 236 193 173 127 138 151 151 161 167 181 170 163 188 197 139 189 221 199 173 186 189 177 178 178 174 173 175 176 175 175 174
327 321 314 307 303 297 292 314 318 292 274 274 327 322 317 313 306 295 274 227 120 134 173 138 122 152 177 179 181 216 219 134 138 154 177 209 216 228 232 195 198 225 207 198 216 235 207 165 191 214 216 225 229 231 208 205 242 246 167 183 140 146 152 153 164 161 134 113 143 207 233 107 188 217 200 181 190 204 190 182 179 178 177 176 179 177 178 178
326 318 309 301 293 276 263 288 303 289 304 8 333 309 323 303 284 270 264 77 81 278 215 89 100 198 179 170 197 221 97 139 172 159 170 202 213 221 227 210 208 214 205 201 209 213 200 174 187 208 221 226 224 227 194 195 237 156 83 224 141 132 130 154 175 137 139 146 152 195 187 147 208 195 183 182 196 204 195 189 181 180 181 178 182 180 178 179
326 315 303 295 288 275 261 267 276 278 309 337 311 309 312 276 266 254 259 43 95 217 90 90 138 192 169 168 203 210 169 193 189 147 172 198 215 239 254 222 214 215 202 215 223 188 188 207 205 213 222 219 227 232 199 207 244 57 49 240 144 129 127 165 190 111 147 226 173 178 177 186 224 183 177 184 200 201 195 197 185 181 183 181 185 182 178 177
325 310 298 288 275 280 266 248 249 261 287 304 302 304 289 260 247 250 238 76 127 146 153 170 149 154 170 178 190 193 190 178 129 159 186 195 198 225 269 230 209 211 195 224 237 186 151 209 217 237 231 219 231 232 199 218 262 1 229 230 181 155 140 140 148 111 156 253 201 177 176 187 215 194 194 187 191 191 192 197 187 184 185 182 186 184 177 175
322 303 290 270 242 241 252 240 244 257 273 293 298 287 271 241 240 262 60 71 91 140 172 175 138 156 187 197 175 172 183 153 146 180 187 183 186 197 226 209 202 207 188 219 234 205 175 208 217 247 245 240 243 230 187 213 252 256 214 205 222 187 144 118 118 165 207 231 226 179 176 191 210 212 204 187 182 182 183 192 187 186 186 183 185 182 175 174
318 297 278 260 244 237 246 279 331 301 279 290 290 273 261 246 247 310 69 142 234 197 161 142 158 175 180 202 165 163 186 166 162 187 188 183 184 189 208 195 178 203 199 202 215 203 197 212 210 219 232 244 256 235 183 204 228 234 204 197 230 206 172 187 185 199 219 169 160 168 175 201 222 234 207 188 188 182 175 186 189 188 187 185 184 178 172 174
312 289 268 255 249 242 248 274 292 287 286 283 276 260 257 273 332 15 30 117 80 23 92 141 196 172 171 190 163 170 189 157 166 200 196 193 195 185 198 209 202 211 219 198 202 208 201 199 203 209 212 215 231 235 202 192 204 216 206 200 229 227 216 228 204 199 203 147 146 168 184 203 187 226 207 188 191 190 176 171 189 194 187 183 184 178 171 174
306 275 256 251 249 245 248 261 269 278 283 271 261 256 262 294 41 347 336 50 71 107 148 190 193 156 187 191 151 189 199 137 175 210 195 200 218 187 183 215 219 220 235 207 200 212 214 209 199 202 199 189 207 233 246 237 207 208 213 210 229 241 242 255 242 221 189 146 137 171 196 235 142 200 218 185 183 191 174 138 157 196 188 184 185 180 174 175
303 258 241 244 248 251 256 261 263 265 268 264 261 263 274 343 35 1 359 32 15 181 140 200 218 178 187 185 169 209 268 112 187 202 198 203 215 192 186 198 210 227 246 227 204 205 220 230 185 186 198 187 198 222 248 266 235 198 206 214 225 237 247 270 280 65 120 151 117 194 205 36 126 172 182 167 166 178 172 150 169 191 190 193 189 182 180 177
262 209 216 230 238 248 250 252 249 242 251 263 264 271 23 29 4 12 16 335 304 323 129 190 227 206 175 169 197 191 158 270 202 185 195 203 190 194 207 187 186 225 245 273 245 203 219 238 146 167 201 197 197 211 219 247 260 191 208 214 222 240 251 274 266 135 165 183 173 205 177 123 147 158 144 153 158 163 179 190 196 198 203 204 192 183 184 180
218 196 209 218 214 231 233 229 230 231 249 265 279 320 17 43 360 3 4 321 317 328 261 204 210 248 184 153 220 191 142 163 210 189 190 193 164 159 213 164 133 245 263 310 284 227 235 239 143 164 207 195 195 214 212 228 246 220 213 206 213 235 246 267 257 211 220 222 191 210 182 154 185 173 146 161 165 168 183 191 192 198 213 209 191 185 188 182
254 225 223 202 184 240 231 218 233 241 254 262 278 323 295 49 28 5 1 327 299 271 264 244 156 250 225 159 198 173 127 156 196 187 192 187 144 136 236 184 139 248 274 291 270 229 252 248 151 168 208 185 184 215 213 218 230 239 256 240 221 229 223 221 236 244 239 221 179 235 213 180 187 167 159 172 175 174 180 182 184 193 200 201 191 189 190 184
256 242 213 161 160 235 224 219 245 249 254 263 248 242 276 62 63 18 5 333 302 291 284 289 170 226 241 203 193 146 135 177 184 179 207 213 155 161 249 225 162 204 250 265 264 232 251 257 161 166 201 184 181 213 214 202 214 234 255 256 232 229 234 235 238 255 262 240 179 228 219 152 90 173 173 177 182 178 176 179 185 192 192 193 195 192 190 187
233 243 164 141 156 209 221 236 250 248 244 269 292 204 293 343 100 69 11 329 315 315 308 321 226 210 200 222 215 157 162 176 165 180 202 217 171 155 186 275 202 191 208 244 263 271 245 253 230 169 192 193 188 202 218 208 198 215 229 232 224 215 227 248 246 245 264 262 227 232 226 103 79 189 177 172 182 183 183 185 186 192 192 189 194 197 191 188
237 249 140 135 156 188 233 241 238 251 241 229 276 57 32 327 312 77 69 304 318 348 329 331 278 222 195 217 216 191 194 167 154 181 186 191 213 123 111 333 283 243 199 214 233 234 239 255 250 188 181 203 200 191 216 231 216 206 214 223 228 223 221 232 236 239 261 265 238 234 240 112 85 50 147 156 177 182 184 188 187 192 192 184 188 199 192 186
249 252 128 136 162 193 244 251 228 258 255 125 330 18 76 289 296 324 293 283 298 199 332 333 301 311 337 289 256 224 217 166 161 183 159 131 71 61 78 44 286 263 243 227 214 188 313 287 268 251 215 205 203 192 206 230 237 224 217 221 226 226 223 228 236 240 254 268 256 231 204 115 116 146 129 142 173 180 177 182 186 187 187 181 181 189 187 166
236 221 132 152 185 214 242 255 233 244 235 86 330 354 31 262 286 331 335 340 333 309 351 18 294 302 309 282 271 237 157 282 248 98 96 96 79 67 59 25 312 256 251 258 233 87 331 267 256 271 267 191 192 193 194 214 237 237 223 223 226 225 220 221 239 263 261 263 263 240 204 125 127 152 138 145 160 171 174 175 175 172 175 182 177 175 176 163
258 283 142 165 193 226 242 253 253 244 98 112 222 167 125 322 348 351 4 23 352 324 3 29 330 304 302 293 292 316 118 246 263 66 119 122 100 84 55 19 314 279 299 346 357 61 243 250 236 247 239 182 177 178 180 203 231 244 234 227 226 232 232 221 216 252 266 267 274 264 210 131 130 146 159 157 152 156 168 167 165 161 165 181 177 166 165 159
282 266 166 164 187 224 247 272 272 251 147 204 222 170 177 160 52 329 328 24 1 325 345 50 331 306 321 318 287 294 274 250 218 154 236 141 125 118 79 28 325 335 25 13 343 309 262 264 251 243 233 203 184 196 222 213 210 225 240 238 230 231 237 235 214 217 239 263 275 275 134 128 144 151 169 175 156 152 158 157 158 163 168 176 172 160 157 148
272 234 213 174 185 221 246 266 269 265 195 207 191 188 247 158 111 206 283 336 36 336 336 41 337 291 270 274 252 232 286 285 255 203 215 166 137 119 80 313 355 31 36 0 302 281 269 253 251 260 259 256 274 302 284 245 204 208 226 234 236 232 233 239 233 218 223 243 250 246 127 145 156 157 173 179 164 155 156 156 158 164 169 172 167 160 158 152
263 257 249 196 198 219 211 211 236 240 151 221 193 194 251 306 117 164 249 331 12 321 321 15 326 300 241 253 243 189 285 304 319 234 227 284 294 116 142 266 328 97 148 222 227 250 271 245 236 245 247 252 269 289 279 249 216 208 213 220 231 241 241 244 243 226 213 233 244 301 355 200 186 182 181 176 170 162 158 159 160 163 170 171 169 168 170 169
255 280 335 300 254 248 210 203 241 222 168 194 216 224 229 238 229 148 90 125 213 286 288 194 323 320 9 324 289 204 224 287 312 287 290 313 295 254 205 235 283 112 214 229 208 236 274 244 228 241 232 231 250 265 255 241 231 222 215 213 222 229 227 235 243 232 214 228 247 352 327 273 206 183 171 162 178 170 156 156 155 157 166 169 169 171 177 184
267 276 27 210 249 289 333 30 274 250 213 200 204 224 233 209 134 55 10 317 76 25 308 280 344 323 4 9 311 280 188 268 274 234 270 278 279 292 263 230 312 335 296 273 182 95 283 257 251 273 255 219 229 244 230 228 237 236 227 232 248 242 228 226 235 229 224 228 219 208 250 13 38 350 171 152 169 167 151 153 150 152 162 166 170 173 178 188
311 333 354 245 235 261 222 197 242 235 187 165 209 211 252 191 106 104 12 331 2 61 290 273 102 10 25 52 296 232 127 298 309 125 230 262 257 277 282 265 298 311 311 307 311 131 260 245 245 281 273 222 210 222 221 223 227 220 246 315 283 264 250 246 250 244 238 238 216 207 214 114 84 308 226 144 150 152 149 157 156 157 162 162 170 175 174 181
329 328 326 280 241 208 215 210 230 224 185 191 192 181 207 146 102 98 73 4 355 24 30 31 86 75 58 83 28 46 79 320 327 42 333 299 337 147 256 294 300 298 307 319 325 290 254 249 238 254 259 230 209 216 213 209 206 185 100 355 305 264 262 271 281 284 276 263 244 235 236 116 118 148 153 131 146 150 151 160 164 166 168 168 174 176 171 172
335 297 273 283 251 185 223 225 224 224 210 191 130 157 200 137 108 90 58 41 9 24 21 360 349 287 154 86 53 24 24 8 358 12 327 315 340 260 248 270 295 309 314 312 313 289 252 262 251 244 246 226 217 225 213 198 196 187 127 18 354 342 322 320 340 358 356 318 266 256 320 88 124 135 136 157 168 155 149 155 161 166 173 172 167 161 159 159
Height
807 806 805 804 803 803 802 801 800 799 799 798 797 797 796 796 794 793 793 791 791 790 789 788 787 786 785 785 784 783 783 782 782 780 777 772 770 771 771 772 772 773 775 775 775 774 773 773 772 771 771 769 769 771 772 771 777 787 795 797 791 795 799 791 792 787 780 781 782 780 778 783 787 782 776 774 779 781 782 782 779 778 777 781 789 797 802 806
807 806 805 804 803 802 801 800 799 799 798 797 797 796 795 795 794 793 792 791 790 789 788 787 786 786 785 784 784 783 782 781 780 775 770 768 769 769 770 771 772 773 773 774 772 771 771 771 769 769 770 770 769 771 776 774 778 785 790 798 797 797 795 784 784 779 774 779 779 778 777 780 784 781 777 783 790 785 787 788 782 785 785 788 793 799 804 806
807 806 805 804 803 801 801 799 799 798 797 796 796 795 794 794 793 792 791 790 789 788 787 787 786 785 784 784 783 783 782 781 777 769 764 766 767 767 768 770 771 772 772 771 770 769 769 768 766 768 770 771 770 773 780 779 780 782 789 804 798 792 789 780 782 778 771 772 775 779 777 778 779 775 777 785 790 788 790 790 788 793 794 795 796 799 804 807
807 806 805 804 803 801 800 799 798 797 796 795 795 794 794 793 792 791 790 789 788 788 787 786 785 785 784 784 783 783 783 781 771 762 763 765 765 765 766 768 770 771 772 771 770 769 767 765 765 766 770 773 770 772 781 782 782 783 789 800 792 786 788 779 778 775 769 769 773 777 778 780 776 772 778 784 791 793 789 786 787 792 793 795 797 799 804 807
807 806 804 803 802 801 800 799 797 796 795 794 794 793 792 792 791 790 789 788 787 787 786 785 785 784 784 783 784 783 784 781 766 759 764 764 764 764 764 766 769 770 771 771 769 768 766 764 764 767 771 774 772 774 779 776 777 783 782 786 784 784 789 778 772 771 767 768 772 777 780 778 774 775 779 782 790 790 783 781 782 785 788 791 795 799 803 807
807 805 804 803 802 801 799 798 797 796 795 794 793 792 791 791 790 789 788 787 787 786 785 785 784 784 784 783 783 784 785 777 762 760 764 762 763 762 763 766 768 770 771 770 767 766 766 764 767 772 773 773 774 776 775 771 776 783 780 783 785 782 785 777 773 771 764 769 776 777 776 772 777 782 779 779 783 778 773 776 779 783 786 789 793 798 803 806
806 805 804 803 801 800 799 798 797 795 794 793 792 791 791 790 789 789 787 787 786 786 785 784 784 784 783 783 784 783 781 769 758 761 762 761 763 761 764 767 767 771 770 768 765 765 766 767 770 771 772 772 773 773 769 770 776 782 784 787 786 780 781 779 778 773 762 770 776 772 773 775 782 786 780 780 778 771 771 774 778 783 786 790 794 798 803 806
806 805 804 802 801 800 798 797 796 795 794 792 791 790 790 789 788 788 787 787 786 785 785 784 784 784 783 784 782 779 773 764 758 761 761 762 762 762 765 767 769 770 768 767 763 763 765 768 769 766 771 772 769 770 769 771 776 782 787 785 781 780 780 779 781 777 766 768 772 773 777 779 780 782 783 781 775 772 773 776 780 783 787 791 796 799 803 806
807 805 803 802 801 800 798 797 795 794 793 792 791 790 789 788 787 787 786 786 785 785 784 784 784 783 784 783 780 775 766 760 760 761 761 762 762 764 766 766 769 768 767 765 761 763 765 767 765 761 768 768 766 769 769 773 778 782 787 783 780 780 779 779 781 780 776 772 772 779 783 781 777 779 786 781 775 775 775 780 783 785 791 793 796 800 803 805
807 805 804 802 801 800 798 796 795 794 793 792 791 790 789 788 787 787 786 786 785 785 784 784 784 783 785 782 780 775 763 759 762 762 761 763 763 765 766 766 768 767 765 763 761 762 761 762 759 754 761 765 765 766 764 769 772 774 780 783 782 782 781 781 783 785 786 781 776 782 787 784 778 784 793 783 774 776 778 784 785 788 793 795 797 800 803 805
806 805 804 802 801 799 797 796 795 793 793 791 790 790 789 788 787 786 786 786 785 784 784 783 783 784 784 781 779 772 761 761 762 761 763 763 764 765 765 766 766 766 764 762 761 760 759 758 752 754 765 766 765 763 758 757 763 770 777 784 786 784 785 785 788 791 792 790 782 781 788 787 782 789 794 782 776 778 782 787 788 790 794 795 798 800 803 805
806 805 803 802 801 799 797 796 794 794 792 791 790 789 788 787 787 786 785 785 785 784 784 783 784 784 784 780 774 766 761 763 763 762 763 763 764 765 765 765 765 765 763 760 760 760 760 756 753 761 766 764 765 765 757 750 760 772 775 787 794 789 791 791 792 793 794 796 786 781 794 798 792 792 788 778 777 779 783 789 789 792 795 796 799 801 803 805
806 805 803 801 800 799 797 795 794 793 792 791 790 788 788 787 786 786 785 785 785 784 784 784 784 784 785 777 765 762 763 763 763 763 763 763 764 764 764 765 765 764 763 760 760 760 760 758 757 760 758 761 764 758 754 753 763 776 776 785 797 798 800 796 793 794 796 798 789 789 807 808 795 790 785 777 778 782 788 790 790 793 795 797 800 802 804 805
806 805 803 801 800 798 797 795 794 793 791 790 789 788 787 786 786 785 785 785 784 785 784 784 784 785 784 772 760 762 763 763 763 763 762 763 763 764 765 764 764 764 762 760 760 760 760 759 759 759 758 758 756 751 758 766 769 780 787 790 797 802 804 798 793 797 800 798 792 798 811 807 795 790 784 777 777 784 790 791 791 793 795 798 800 803 805 806
806 804 803 801 799 798 796 795 794 792 791 790 788 788 787 786 786 785 785 785 784 785 784 785 784 783 780 768 760 762 763 762 763 762 762 762 762 763 763 764 765 763 763 762 760 760 761 761 762 766 762 755 756 762 770 776 777 784 797 804 801 799 802 801 795 796 802 800 795 804 814 807 798 791 782 777 778 784 791 793 792 793 795 798 801 802 805 806
806 804 802 800 798 797 796 794 793 792 791 789 788 788 786 786 785 785 785 784 785 785 785 785 782 781 778 766 760 762 762 760 760 761 762 761 761 762 763 764 764 763 764 762 761 762 762 763 763 762 761 758 764 770 771 781 793 796 797 804 803 797 803 808 799 794 798 803 802 809 816 808 797 790 783 778 780 784 791 794 793 794 796 798 800 802 804 807
805 804 802 800 798 796 795 794 793 791 790 789 788 787 787 787 786 786 785 784 786 785 785 783 779 779 775 764 762 762 758 757 760 761 761 761 760 761 763 763 763 763 763 763 763 763 763 766 765 763 762 762 762 765 777 793 802 801 791 793 801 798 801 811 807 796 795 804 807 807 813 808 795 789 785 780 780 785 791 794 795 794 796 797 799 801 804 806
805 803 801 799 798 796 795 794 792 791 790 789 788 788 787 786 786 786 785 785 786 786 786 782 780 782 775 763 761 759 755 758 760 760 761 761 761 761 762 762 762 763 765 766 766 765 766 767 767 770 769 766 764 764 781 797 797 798 792 788 800 800 799 808 808 800 799 806 807 806 813 811 799 790 787 783 781 786 790 791 794 794 796 798 798 800 803 805
805 803 801 799 797 796 794 793 792 791 790 790 789 788 787 786 787 786 785 785 784 783 781 777 776 778 772 761 757 755 756 759 760 761 761 761 761 761 761 761 761 764 770 773 771 766 767 770 772 777 773 768 767 761 767 779 781 790 793 789 799 803 799 801 800 795 798 809 811 809 814 814 806 796 790 786 782 787 790 789 793 795 796 798 798 800 803 805
804 802 800 798 796 795 794 793 792 791 790 790 789 789 786 784 783 782 780 780 777 772 768 766 765 765 762 757 755 757 759 760 760 760 760 761 760 760 761 761 764 767 770 771 771 764 764 776 778 775 768 761 760 756 756 762 762 778 796 794 795 800 800 797 796 793 793 807 815 810 813 816 812 804 795 789 787 789 791 792 795 796 798 799 799 801 803 805
803 802 799 797 796 794 793 792 791 790 790 790 790 789 782 776 779 779 775 771 765 761 762 760 758 759 757 754 755 757 759 761 759 757 760 760 758 763 765 764 770 774 768 763 764 762 766 778 773 762 757 753 752 749 753 761 760 772 793 797 794 798 801 797 795 795 792 803 815 810 813 817 814 810 801 791 792 793 791 793 796 797 799 800 800 803 803 803
803 801 798 797 795 794 793 791 790 789 789 790 789 786 776 773 777 776 773 770 760 756 759 759 758 759 756 755 755 754 758 763 762 758 759 759 759 764 766 766 772 773 764 760 764 770 775 776 763 751 750 751 750 745 750 763 761 763 784 798 801 800 799 797 795 796 794 803 816 813 812 816 814 812 804 794 793 792 789 791 794 796 799 800 801 803 803 803
802 800 797 796 794 793 792 790 790 788 788 789 786 781 775 773 775 772 774 775 766 758 758 759 760 759 758 758 755 755 758 762 765 761 757 760 761 760 764 768 770 767 763 764 767 774 779 771 754 746 748 753 757 753 754 764 760 763 786 801 804 800 797 802 801 797 795 800 811 812 814 817 816 814 806 794 791 791 789 789 791 793 796 799 799 800 802 803
801 798 797 795 793 793 791 789 789 787 786 785 782 779 775 775 775 773 773 771 765 759 755 755 755 754 756 755 753 756 757 755 760 760 756 760 760 758 762 764 766 766 763 762 762 768 769 757 745 746 750 756 763 762 759 767 764 765 782 790 792 795 793 797 800 799 800 803 805 811 822 824 818 819 812 798 793 792 791 792 793 793 793 795 797 798 800 801
799 798 795 794 793 791 790 789 787 784 784 782 779 777 775 776 775 774 776 774 768 761 756 755 754 752 751 752 754 753 753 753 753 753 753 756 756 760 762 758 763 767 763 761 762 765 759 744 742 750 755 759 766 763 757 764 767 767 772 770 776 788 790 792 796 801 811 814 805 806 829 835 820 818 816 807 802 797 794 795 796 795 794 795 798 799 799 800
798 796 794 793 792 791 790 787 783 782 781 778 776 775 775 776 775 775 778 780 775 765 760 759 758 757 753 754 753 749 758 759 748 748 753 753 750 754 761 759 758 761 758 758 761 759 750 743 746 754 759 763 767 762 753 755 767 770 760 754 768 785 789 793 795 800 812 816 804 799 821 838 828 818 812 808 810 805 798 797 796 795 796 796 797 798 798 799
796 794 793 792 790 791 789 784 782 781 777 774 774 775 776 775 775 775 780 790 785 766 759 758 757 758 754 751 748 754 769 763 749 750 751 753 750 748 760 761 759 759 750 756 768 759 747 750 756 757 762 767 767 762 751 749 764 768 752 746 765 780 788 794 797 804 809 810 810 806 812 831 834 820 807 806 813 813 804 798 797 796 796 796 795 795 796 797
794 792 791 790 789 790 788 785 784 779 774 774 774 775 776 774 775 775 787 806 791 760 754 756 754 753 750 749 748 754 763 757 759 760 747 750 752 750 761 760 758 758 746 757 774 757 743 756 761 760 766 768 763 754 743 746 759 758 747 747 760 777 791 796 798 805 803 807 821 819 812 830 836 817 806 810 814 817 810 800 798 798 796 796 794 793 794 794
792 790 789 788 788 787 786 786 784 778 775 775 775 775 774 774 775 777 793 805 782 756 756 757 755 754 750 753 754 754 754 753 761 758 746 750 750 749 758 753 751 756 749 753 762 751 744 750 752 757 765 764 756 744 737 748 755 748 747 750 757 778 796 796 796 802 805 811 818 812 810 828 837 820 814 821 819 815 810 800 796 796 795 795 792 791 792 793
789 788 787 787 787 786 785 784 781 778 777 776 776 775 773 774 779 792 805 795 770 759 757 753 756 757 755 760 761 756 755 755 756 753 752 752 749 750 750 743 744 754 756 754 753 749 745 743 746 753 755 752 747 740 737 746 750 747 753 758 761 775 789 794 795 800 817 825 812 800 801 819 836 826 812 814 811 806 804 798 795 794 793 793 791 789 790 792
787 786 785 785 785 785 784 780 777 777 777 776 776 772 773 776 782 799 801 775 762 763 756 755 759 757 758 762 763 759 758 758 756 758 760 757 756 757 754 751 752 758 766 765 757 753 752 754 755 752 746 743 745 743 742 745 749 751 758 768 775 777 785 806 814 811 824 830 810 796 797 812 833 825 803 799 795 791 798 797 794 795 794 791 789 787 788 791
785 784 784 783 783 783 781 777 775 777 776 776 775 771 777 785 787 790 780 764 770 768 756 759 759 755 759 761 761 761 760 760 757 758 760 759 762 762 759 760 761 771 780 773 763 759 759 759 756 752 747 745 752 757 755 754 755 757 762 775 789 789 796 821 827 819 821 817 801 796 804 816 822 809 794 794 790 785 790 792 790 792 793 789 786 785 786 789
783 782 781 781 781 780 779 777 776 777 775 775 774 771 780 795 793 779 766 764 772 762 752 758 754 752 760 761 762 759 756 760 759 757 756 755 760 759 757 754 752 766 774 766 766 766 765 760 753 756 753 746 755 765 765 763 760 763 766 778 794 798 809 822 816 811 813 806 795 794 807 818 814 801 788 785 785 781 783 789 791 789 787 786 783 782 785 788
781 780 780 779 779 778 777 777 775 776 775 773 775 776 786 797 787 771 765 763 762 756 754 757 753 756 760 760 763 756 755 762 758 756 759 757 760 759 758 755 748 752 757 759 763 764 773 773 756 757 756 748 755 757 754 752 754 758 755 766 784 788 800 810 805 809 809 802 802 800 806 814 812 804 787 775 777 776 778 789 794 789 783 782 781 781 785 788
779 779 779 778 778 776 775 775 774 775 775 772 775 781 790 793 779 770 769 763 757 755 754 754 753 760 763 759 759 753 755 763 758 757 762 761 763 761 759 757 752 750 754 761 759 753 767 765 740 740 744 743 754 751 743 748 755 752 747 764 778 769 775 786 787 795 797 804 815 810 806 803 795 791 780 774 780 778 780 789 792 791 786 781 782 782 784 787
779 778 778 777 776 774 773 774 773 774 773 772 779 782 781 780 773 768 767 761 758 755 756 760 758 761 767 764 760 754 754 760 759 760 763 760 760 760 758 754 751 752 753 760 759 752 763 758 734 738 743 738 746 746 742 752 760 755 756 768 765 749 758 779 786 786 789 807 815 802 801 799 790 791 785 778 786 787 787 790 788 790 789 785 783 782 783 786
778 777 776 773 772 773 773 773 773 773 771 772 780 780 771 768 765 762 760 758 756 754 759 768 765 763 768 770 765 756 755 762 762 763 766 763 762 761 758 754 752 753 750 756 760 750 757 759 740 743 752 740 736 742 742 742 748 760 766 760 750 749 757 773 791 794 792 805 802 787 797 807 802 800 792 784 790 792 790 790 789 790 791 788 783 782 783 783
776 774 771 769 771 772 771 772 772 770 769 772 780 778 767 763 761 758 758 757 756 756 761 767 766 762 764 769 767 757 759 769 768 767 769 767 768 764 759 757 757 755 750 755 762 751 752 763 749 742 750 743 735 746 753 745 739 749 754 744 751 774 778 774 786 795 796 806 805 790 790 801 802 795 790 790 790 790 788 787 788 789 789 788 783 782 782 782
776 773 770 767 770 771 770 772 769 767 771 776 780 777 765 761 760 757 756 756 756 761 763 761 760 762 762 763 763 759 763 770 769 771 772 769 770 765 757 756 758 758 753 753 759 751 750 765 763 745 740 742 744 752 761 757 746 744 747 745 750 767 774 772 774 778 786 800 808 802 793 796 798 787 783 787 784 783 787 786 786 785 784 786 785 782 781 781
772 771 769 765 768 771 769 769 768 769 774 775 774 771 764 760 758 755 755 756 756 761 764 760 759 763 764 760 759 758 761 765 766 770 772 767 767 766 758 758 759 757 755 754 756 753 751 762 766 750 739 746 754 754 753 753 751 753 759 760 757 757 760 767 767 763 770 786 799 807 805 798 790 778 774 777 776 776 780 781 783 782 781 784 785 783 781 780
769 771 769 764 767 769 767 770 770 769 771 771 768 766 766 763 757 754 754 753 754 756 757 760 760 761 763 762 760 758 757 762 764 766 767 764 764 767 763 761 761 758 758 760 758 756 756 758 759 754 750 754 752 743 738 739 740 746 755 757 758 758 761 778 784 766 758 770 780 795 806 797 780 771 771 772 772 772 774 776 779 780 781 783 784 784 782 781
771 773 769 764 767 767 767 772 769 763 766 769 767 764 766 766 760 756 755 752 754 755 753 758 761 761 763 763 761 759 758 761 763 762 763 761 762 768 765 760 760 758 758 760 754 750 754 759 760 757 749 746 741 732 732 734 731 734 743 745 748 752 760 781 793 775 762 765 764 773 796 796 774 766 769 771 770 770 771 776 780 780 782 783 784 785 784 784
770 769 765 764 765 764 770 777 771 764 765 766 764 763 764 764 761 759 759 758 758 758 758 761 762 763 765 763 761 761 761 764 765 762 764 765 765 766 763 759 760 758 757 759 754 751 758 765 768 764 749 738 733 728 728 730 732 739 741 739 742 746 750 760 768 765 767 772 767 774 797 799 776 763 765 768 770 771 771 773 777 779 781 782 782 784 787 789
764 761 760 763 765 763 770 779 776 770 768 766 766 767 765 764 764 763 764 765 764 763 765 767 764 764 764 762 762 763 765 771 771 764 763 768 767 764 761 760 760 757 758 763 761 760 767 769 769 773 769 758 752 749 747 743 744 749 745 738 739 740 740 745 752 763 774 773 767 779 799 797 776 765 765 764 767 772 771 770 773 778 783 784 783 784 788 790
766 764 761 759 761 763 767 769 769 771 771 771 770 769 767 767 767 767 766 766 764 763 767 769 765 763 763 763 766 765 764 768 772 769 765 766 766 764 761 761 760 758 759 764 763 762 769 771 771 779 783 778 774 773 765 755 752 751 746 741 739 739 741 745 754 772 784 776 767 775 790 789 774 769 771 766 765 771 771 771 774 777 781 783 782 784 787 789
772 771 768 762 759 760 762 760 761 767 770 771 773 772 769 769 768 767 765 766 766 764 766 767 765 765 767 769 772 773 768 765 768 771 770 768 767 765 762 761 760 761 764 767 763 762 768 771 768 775 780 775 773 769 753 743 749 754 751 746 742 739 739 743 755 771 777 774 771 769 774 781 777 774 775 770 767 771 772 773 777 778 779 779 779 783 786 788
773 772 768 768 766 763 764 762 761 765 766 769 775 774 771 771 771 768 767 767 767 765 767 768 767 770 774 774 775 778 776 771 770 772 773 771 768 764 763 760 758 762 766 766 761 763 773 775 767 769 772 766 761 758 747 741 744 748 749 747 744 741 741 747 757 761 762 773 781 768 763 775 777 773 774 773 768 769 771 773 776 778 778 778 779 782 786 788
772 770 763 766 771 769 768 767 763 763 765 768 772 773 772 773 773 772 770 768 766 766 770 775 774 772 773 775 777 781 782 782 781 779 778 777 773 769 767 763 759 759 761 759 756 761 774 777 765 761 763 758 753 750 746 743 741 739 740 742 742 744 748 753 755 751 756 773 779 770 766 772 771 767 768 771 769 768 769 770 772 775 778 779 780 784 787 789
770 769 763 763 769 770 769 768 766 766 767 769 772 774 773 774 775 774 772 770 771 770 771 779 780 774 772 774 778 784 787 789 789 785 782 780 778 776 775 773 766 759 758 758 757 762 775 777 766 762 760 754 751 750 745 744 744 742 741 741 743 743 743 747 748 745 749 757 760 763 767 768 771 771 765 764 766 766 768 770 771 774 778 780 782 786 788 790
776 778 775 770 770 769 768 768 768 769 769 772 776 775 771 773 776 775 773 774 778 776 773 778 780 775 774 776 779 783 784 783 785 784 781 782 781 780 780 780 775 767 763 764 762 765 775 777 768 766 765 757 750 749 746 746 749 750 752 752 751 750 748 748 748 745 748 753 755 759 765 770 778 779 769 764 767 769 772 776 775 776 778 779 782 785 786 788
781 781 781 780 776 771 770 768 767 770 773 774 776 775 773 774 775 776 775 774 775 777 775 776 778 776 776 778 780 782 778 777 779 777 775 777 778 778 778 777 776 775 772 770 768 768 774 776 769 769 775 767 752 750 750 747 751 761 768 768 762 760 759 756 752 751 754 761 762 763 769 776 778 776 772 770 770 773 779 781 780 779 777 779 782 783 784 787
784 780 779 781 780 775 771 769 767 771 775 772 772 773 774 773 772 775 782 778 772 774 775 774 776 777 779 783 785 781 776 774 774 772 770 770 770 770 772 771 770 775 777 774 773 771 773 778 775 773 780 773 756 751 749 751 768 783 779 772 768 766 764 763 762 761 761 764 769 771 775 776 771 769 775 777 774 775 780 780 781 782 780 780 782 784 786 788